When you browse on this site, cookies collect data to enhance your experience and personalize the content and advertising you see.
Visit our Privacy Policy to learn more. By continuing to use the site, you agree to this use of cookies and data.
EN

Hourly Weather Alekseevka

Today, 20 September, Sunday

Time Temperature Precipitation Wind Pressure Humidity
00:00 +9°C° 0.7 mm 3 mps 738 mmHg 90%
01:00 +9°C° 0.7 mm 2 mps 737 mmHg 90%
02:00 +9°C° 0.4 mm 3 mps 737 mmHg 89%
03:00 +8°C° 0.4 mm 4 mps 736 mmHg 88%
04:00 +8°C° 0.4 mm 5 mps 735 mmHg 87%
05:00 +8°C° 1.4 mm 4 mps 735 mmHg 89%
06:00 +7°C° 1.4 mm 4 mps 734 mmHg 91%
07:00 +8°C° 1.4 mm 3 mps 734 mmHg 93%
08:00 +7°C° 1.8 mm 4 mps 734 mmHg 93%
09:00 +7°C° 1.8 mm 4 mps 734 mmHg 93%
10:00 +7°C° 1.8 mm 5 mps 734 mmHg 93%
11:00 +5°C° 0.8 mm 7 mps 735 mmHg 93%
12:00 +4°C° 0.8 mm 8 mps 735 mmHg 94%
13:00 +2°C° 0.8 mm 10 mps 735 mmHg 95%
14:00 +2°C° 0.3 mm 9 mps 736 mmHg 90%
15:00 +4°C° 0.3 mm 8 mps 738 mmHg 85%
16:00 +4°C° 0.3 mm 7 mps 739 mmHg 81%
17:00 +4°C° 0 mm 6 mps 739 mmHg 81%
18:00 +5°C° 0 mm 4 mps 740 mmHg 81%
19:00 +4°C° 0 mm 3 mps 740 mmHg 82%
20:00 +4°C° 0 mm 3 mps 741 mmHg 83%
21:00 +4°C° 0 mm 3 mps 741 mmHg 85%
22:00 +4°C° 0 mm 4 mps 742 mmHg 87%
23:00 +4°C° 0 mm 4 mps 742 mmHg 88%

Tomorrow, 21 September, Monday

Time Temperature Precipitation Wind Pressure Humidity
00:00 +4°C° 0 mm 4 mps 742 mmHg 90%
01:00 +4°C° 0 mm 4 mps 742 mmHg 91%
02:00 +4°C° 0 mm 4 mps 743 mmHg 92%
03:00 +3°C° 0 mm 5 mps 743 mmHg 92%
04:00 +3°C° 0 mm 5 mps 744 mmHg 93%
05:00 +3°C° 0 mm 5 mps 744 mmHg 91%
06:00 +3°C° 0 mm 5 mps 744 mmHg 90%
07:00 +3°C° 0 mm 5 mps 745 mmHg 89%
08:00 +3°C° 0 mm 5 mps 745 mmHg 88%
09:00 +5°C° 0 mm 5 mps 746 mmHg 86%
10:00 +5°C° 0 mm 4 mps 746 mmHg 85%
11:00 +5°C° 0.3 mm 5 mps 746 mmHg 84%
12:00 +6°C° 0.3 mm 5 mps 747 mmHg 83%
13:00 +6°C° 0.3 mm 5 mps 747 mmHg 81%
14:00 +7°C° 0.2 mm 6 mps 747 mmHg 78%
15:00 +7°C° 0.2 mm 6 mps 747 mmHg 74%
16:00 +7°C° 0.2 mm 6 mps 747 mmHg 71%
17:00 +7°C° 0 mm 5 mps 748 mmHg 74%
18:00 +6°C° 0 mm 5 mps 748 mmHg 78%
19:00 +5°C° 0 mm 4 mps 748 mmHg 81%
20:00 +5°C° 0.1 mm 4 mps 748 mmHg 84%
21:00 +5°C° 0.1 mm 4 mps 748 mmHg 86%
22:00 +5°C° 0.1 mm 4 mps 748 mmHg 89%
23:00 +5°C° 0.3 mm 4 mps 747 mmHg 90%

Day after tomorrow, 22 September, Tuesday

Time Temperature Precipitation Wind Pressure Humidity
00:00 +6°C° 0.3 mm 4 mps 747 mmHg 91%
01:00 +6°C° 0.3 mm 5 mps 746 mmHg 92%
02:00 +6°C° 0.4 mm 5 mps 746 mmHg 92%
03:00 +6°C° 0.4 mm 5 mps 746 mmHg 93%
04:00 +7°C° 0.4 mm 5 mps 746 mmHg 93%
05:00 +6°C° 0.1 mm 5 mps 747 mmHg 92%
06:00 +6°C° 0.1 mm 5 mps 747 mmHg 92%
07:00 +6°C° 0.1 mm 5 mps 748 mmHg 91%
08:00 +6°C° 0 mm 5 mps 748 mmHg 88%
09:00 +7°C° 0 mm 5 mps 749 mmHg 85%
10:00 +8°C° 0 mm 5 mps 749 mmHg 82%
11:00 +9°C° 0 mm 5 mps 749 mmHg 79%
12:00 +10°C° 0 mm 6 mps 749 mmHg 75%
13:00 +10°C° 0 mm 6 mps 749 mmHg 72%
14:00 +11°C° 0 mm 6 mps 749 mmHg 71%
15:00 +12°C° 0 mm 5 mps 748 mmHg 71%
16:00 +12°C° 0 mm 5 mps 748 mmHg 71%
17:00 +12°C° 0 mm 5 mps 748 mmHg 74%
18:00 +12°C° 0 mm 5 mps 747 mmHg 78%
19:00 +12°C° 0 mm 5 mps 747 mmHg 81%
20:00 +11°C° 0 mm 6 mps 746 mmHg 79%
21:00 +11°C° 0 mm 7 mps 746 mmHg 77%
22:00 +12°C° 0 mm 7 mps 745 mmHg 75%
23:00 +12°C° 0 mm 7 mps 744 mmHg 77%

23 September, Wednesday

Time Temperature Precipitation Wind Pressure Humidity
00:00 +12°C° 0 mm 7 mps 744 mmHg 78%
01:00 +12°C° 0 mm 7 mps 743 mmHg 79%
02:00 +12°C° 0.1 mm 7 mps 743 mmHg 80%
03:00 +12°C° 0.1 mm 8 mps 742 mmHg 81%
04:00 +12°C° 0.1 mm 8 mps 742 mmHg 81%
05:00 +11°C° 0.4 mm 8 mps 742 mmHg 82%
06:00 +11°C° 0.4 mm 7 mps 743 mmHg 84%
07:00 +10°C° 0.4 mm 7 mps 743 mmHg 85%
08:00 +10°C° 0.1 mm 8 mps 744 mmHg 78%
09:00 +11°C° 0.1 mm 8 mps 744 mmHg 72%
10:00 +11°C° 0.1 mm 9 mps 744 mmHg 65%
11:00 +11°C° 0 mm 9 mps 745 mmHg 62%
12:00 +11°C° 0 mm 9 mps 746 mmHg 59%
13:00 +11°C° 0 mm 9 mps 746 mmHg 56%
14:00 +11°C° 0 mm 8 mps 747 mmHg 58%
15:00 +11°C° 0 mm 8 mps 748 mmHg 60%
16:00 +10°C° 0 mm 7 mps 749 mmHg 62%
17:00 +9°C° 0 mm 6 mps 749 mmHg 63%
18:00 +8°C° 0 mm 6 mps 750 mmHg 64%
19:00 +8°C° 0 mm 5 mps 751 mmHg 65%
20:00 +7°C° 0 mm 5 mps 751 mmHg 68%
21:00 +6°C° 0 mm 5 mps 752 mmHg 70%
22:00 +6°C° 0 mm 5 mps 752 mmHg 73%
23:00 +5°C° 0 mm 5 mps 753 mmHg 75%

24 September, Thursday

Time Temperature Precipitation Wind Pressure Humidity
00:00 +5°C° 0 mm 4 mps 753 mmHg 78%
01:00 +5°C° 0 mm 4 mps 754 mmHg 80%
02:00 +4°C° 0 mm 4 mps 755 mmHg 83%
03:00 +4°C° 0 mm 3 mps 755 mmHg 85%
04:00 +4°C° 0 mm 3 mps 756 mmHg 88%
05:00 +3°C° 0 mm 3 mps 757 mmHg 89%
06:00 +4°C° 0 mm 2 mps 757 mmHg 90%
07:00 +4°C° 0 mm 2 mps 758 mmHg 90%
08:00 +6°C° 0 mm 2 mps 758 mmHg 85%
09:00 +7°C° 0 mm 2 mps 759 mmHg 79%
10:00 +9°C° 0 mm 2 mps 759 mmHg 73%
11:00 +10°C° 0 mm 2 mps 759 mmHg 69%
12:00 +11°C° 0 mm 3 mps 759 mmHg 65%
13:00 +12°C° 0 mm 3 mps 760 mmHg 61%
14:00 +12°C° 0 mm 3 mps 760 mmHg 61%
15:00 +13°C° 0 mm 2 mps 760 mmHg 61%
16:00 +13°C° 0 mm 2 mps 760 mmHg 61%
17:00 +12°C° 0 mm 2 mps 760 mmHg 66%
18:00 +10°C° 0 mm 1 mps 761 mmHg 71%
19:00 +8°C° 0 mm 0 mps 761 mmHg 76%
20:00 +8°C° 0 mm 0 mps 761 mmHg 78%
21:00 +7°C° 0 mm 0 mps 761 mmHg 79%
22:00 +7°C° 0 mm 0 mps 762 mmHg 80%
23:00 +7°C° 0 mm 0 mps 762 mmHg 81%

25 September, Friday

Time Temperature Precipitation Wind Pressure Humidity
00:00 +6°C° 0 mm 0 mps 762 mmHg 82%
01:00 +6°C° 0 mm 0 mps 762 mmHg 83%
02:00 +6°C° 0 mm 0 mps 762 mmHg 84%
03:00 +6°C° 0 mm 0 mps 762 mmHg 84%
04:00 +5°C° 0 mm 0 mps 763 mmHg 85%
05:00 +5°C° 0 mm 0 mps 763 mmHg 85%
06:00 +6°C° 0 mm 0 mps 763 mmHg 85%
07:00 +6°C° 0 mm 0 mps 763 mmHg 85%
08:00 +7°C° 0 mm 0 mps 763 mmHg 80%
09:00 +10°C° 0 mm 1 mps 763 mmHg 74%
10:00 +11°C° 0 mm 1 mps 763 mmHg 69%
11:00 +12°C° 0 mm 1 mps 763 mmHg 65%
12:00 +13°C° 0 mm 1 mps 763 mmHg 60%
13:00 +14°C° 0 mm 1 mps 763 mmHg 56%
14:00 +15°C° 0 mm 1 mps 763 mmHg 56%
15:00 +15°C° 0 mm 1 mps 762 mmHg 56%
16:00 +15°C° 0 mm 1 mps 762 mmHg 55%
17:00 +13°C° 0 mm 1 mps 762 mmHg 61%
18:00 +11°C° 0 mm 0 mps 762 mmHg 66%
19:00 +10°C° 0 mm 0 mps 762 mmHg 71%
20:00 +10°C° 0 mm 1 mps 762 mmHg 73%
21:00 +10°C° 0 mm 1 mps 763 mmHg 75%
22:00 +9°C° 0 mm 1 mps 763 mmHg 77%
23:00 +9°C° 0 mm 1 mps 763 mmHg 79%
Show more